Home > Weather > Bogota > Past weeks

Flag for Colombia Weather for the Past 2 Weeks in Bogota, Colombia

Now
68 °F

Scattered clouds.


Feels Like: 68 °F
Forecast: 48 / 67 °F
Wind: 12 mph from South

Location: Bogota / Eldorado

Current Time: Feb 14, 2016 at 11:58:19 AM

Latest Report: Feb 14, 2016 at 11:00 AM


Visibility: N/A

Pressure: 30.29 "Hg (22.32 "Hg at 2618m altitude)

Humidity: 49%

Dew point: 48 °F

Location of BogotaLocation

Historic Weather in Bogota — Graph

°F

Bogota Temperature Yesterday

Maximum temperature yesterday: 70 °F (at 2:00 PM)
Minimum temperature yesterday: 52 °F (at 3:00 AM)
Average temperature yesterday: 60 °F

High & Low Weather Summary for the Past Weeks

 TemperatureHumidityPressure
High75 °F (Feb 1, 1:00 PM)100% (Feb 1, 3:00 AM)30.41 "Hg (Feb 1, 3:00 AM)
Low39 °F (Feb 1, 6:00 AM)14% (Feb 1, 12:00 PM)30.05 "Hg (Feb 11, 2:00 AM)
Average59 °F69%30.32 "Hg
* Reported Jan 30 11:00 AM — Feb 14 11:00 AM, Bogota, Weather by CustomWeather, © 2016

Note: Actual official high and low records may vary slightly from our data, if they occured in-between our weather recording intervals... More about our weather records

Advertising

Bogota Weather History for the Previous 24 Hours

 ConditionsComfort  
Time TempWeatherWind HumidityBarometerVisibility
11:00 AM
Sun, Feb 14
68 °FScattered clouds.12 mph49%30.29 "HgN/A
10:00 AM66 °FBroken clouds.9 mph52%30.31 "HgN/A
9:00 AM63 °FBroken clouds.9 mph59%30.32 "HgN/A
8:00 AM59 °FBroken clouds.7 mph72%30.30 "HgN/A
7:00 AM55 °FPartly sunny.3 mph82%30.28 "HgN/A
6:00 AM54 °FPassing clouds.2 mph88%30.25 "HgN/A
5:00 AM54 °FPassing clouds.2 mph82%30.24 "HgN/A
4:00 AM52 °FPassing clouds.2 mph88%30.23 "HgN/A
3:00 AM55 °FPassing clouds.2 mph77%30.24 "HgN/A
2:00 AM55 °FPassing clouds.2 mph77%30.26 "HgN/A
1:00 AM55 °FPassing clouds.No wind82%30.30 "HgN/A
12:00 AM59 °FPassing clouds.7 mph68%30.32 "HgN/A
11:00 PM
Sat, Feb 13
61 °FFog.5 mph72%30.33 "HgN/A
10:00 PM55 °FFog.5 mph94%30.33 "HgN/A
9:00 PM55 °FFog.3 mph88%30.30 "HgN/A
8:00 PM57 °FPassing clouds.2 mph88%30.29 "HgN/A
7:00 PM61 °FPassing clouds.6 mph77%30.26 "HgN/A
6:00 PM63 °FScattered clouds.9 mph73%30.24 "HgN/A
5:00 PM66 °FPassing clouds.10 mph60%30.23 "HgN/A
4:00 PM68 °FScattered clouds.8 mph53%30.23 "HgN/A
3:00 PM68 °FScattered clouds.12 mph53%30.23 "HgN/A
2:00 PM70 °FBroken clouds.10 mph46%30.26 "HgN/A
1:00 PM68 °FScattered clouds.9 mph46%30.29 "HgN/A
12:00 PM68 °FBroken clouds.2 mph43%30.32 "HgN/A
11:00 AM66 °FScattered clouds.7 mph46%30.35 "HgN/A
Weather by CustomWeather, © 2016

See weather overviewHow to use our weather pages